Time,TemperatureF,DewpointF,PressureIn,WindDirection,WindDirectionDegrees,WindSpeedMPH,WindSpeedGustMPH,Humidity,HourlyPrecipIn,Conditions,Clouds,dailyrainin,SoftwareType,DateUTC
2013-03-19 00:02:00,10.0,3.0,-100.00,NW,315,24.0,30.0,73,0.00,,,0.00,,2013-03-19 05:02:00,
2013-03-19 00:22:00,10.0,3.0,-100.00,NW,310,24.0,30.0,73,0.00,,,0.00,,2013-03-19 05:22:00,
2013-03-19 00:32:00,10.0,3.0,-100.00,NW,315,25.0,32.0,73,0.00,,,0.00,,2013-03-19 05:32:00,
2013-03-19 00:42:00,9.0,3.0,-100.00,NW,315,22.0,29.0,73,0.00,,,0.00,,2013-03-19 05:42:00,
2013-03-19 00:52:00,9.0,3.0,-100.00,NW,320,22.0,29.0,74,0.00,,,0.00,,2013-03-19 05:52:00,
2013-03-19 01:02:00,9.0,3.0,-100.00,NW,310,21.0,30.0,73,0.00,,,0.00,,2013-03-19 06:02:00,
2013-03-19 01:12:00,9.0,3.0,-100.00,NW,305,24.0,28.0,73,0.00,,,0.00,,2013-03-19 06:12:00,
2013-03-19 01:32:00,9.0,3.0,-100.00,NW,315,23.0,29.0,74,0.00,,,0.00,,2013-03-19 06:32:00,
2013-03-19 01:42:00,9.0,3.0,-100.00,NW,315,24.0,29.0,74,0.00,,,0.00,,2013-03-19 06:42:00,
2013-03-19 01:52:00,9.0,1.0,-100.00,NW,320,24.0,30.0,73,0.00,,,0.00,,2013-03-19 06:52:00,
2013-03-19 02:02:00,9.0,1.0,-100.00,NW,310,21.0,26.0,74,0.00,,,0.00,,2013-03-19 07:02:00,
2013-03-19 02:12:00,9.0,1.0,-100.00,NW,320,23.0,30.0,74,0.00,,,0.00,,2013-03-19 07:12:00,
2013-03-19 02:21:00,9.0,3.0,-100.00,NW,315,21.0,29.0,74,0.00,,,0.00,,2013-03-19 07:21:00,
2013-03-19 02:22:00,9.0,1.0,-100.00,NW,310,21.0,27.0,74,0.00,,,0.00,,2013-03-19 07:22:00,
2013-03-19 02:32:00,9.0,1.0,-100.00,NW,305,21.0,29.0,74,0.00,,,0.00,,2013-03-19 07:32:00,
2013-03-19 02:42:00,9.0,1.0,-100.00,NW,310,22.0,26.0,73,0.00,,,0.00,,2013-03-19 07:42:00,
2013-03-19 02:52:00,9.0,1.0,-100.00,NW,310,20.0,26.0,73,0.00,,,0.00,,2013-03-19 07:52:00,
2013-03-19 03:02:00,9.0,1.0,-100.00,WNW,300,21.0,27.0,73,0.00,,,0.00,,2013-03-19 08:02:00,
2013-03-19 03:12:00,9.0,1.0,-100.00,WNW,300,20.0,26.0,72,0.00,,,0.00,,2013-03-19 08:12:00,
2013-03-19 03:22:00,9.0,1.0,-100.00,NW,310,19.0,24.0,72,0.00,,,0.00,,2013-03-19 08:22:00,
2013-03-19 03:32:00,9.0,1.0,-100.00,NW,310,20.0,24.0,72,0.00,,,0.00,,2013-03-19 08:32:00,
2013-03-19 03:42:00,9.0,1.0,-100.00,NW,310,19.0,23.0,73,0.00,,,0.00,,2013-03-19 08:42:00,
2013-03-19 03:52:00,9.0,1.0,-100.00,WNW,300,20.0,24.0,73,0.00,,,0.00,,2013-03-19 08:52:00,
2013-03-19 04:02:00,8.0,1.0,-100.00,NW,310,18.0,24.0,73,0.00,,,0.00,,2013-03-19 09:02:00,
2013-03-19 04:12:00,8.0,1.0,-100.00,NW,310,20.0,24.0,72,0.00,,,0.00,,2013-03-19 09:12:00,
2013-03-19 04:22:00,8.0,1.0,-100.00,NW,310,16.0,23.0,73,0.00,,,0.00,,2013-03-19 09:22:00,
2013-03-19 04:32:00,8.0,1.0,-100.00,NW,310,17.0,23.0,73,0.00,,,0.00,,2013-03-19 09:32:00,
2013-03-19 04:42:00,8.0,1.0,-100.00,NW,315,16.0,21.0,73,0.00,,,0.00,,2013-03-19 09:42:00,
2013-03-19 04:52:00,8.0,1.0,-100.00,NW,310,17.0,22.0,72,0.00,,,0.00,,2013-03-19 09:52:00,
2013-03-19 05:02:00,8.0,1.0,-100.00,NW,310,18.0,23.0,73,0.00,,,0.00,,2013-03-19 10:02:00,
2013-03-19 05:12:00,8.0,1.0,-100.00,NW,305,16.0,23.0,73,0.00,,,0.00,,2013-03-19 10:12:00,
2013-03-19 05:22:00,8.0,1.0,-100.00,NW,305,16.0,21.0,73,0.00,,,0.00,,2013-03-19 10:22:00,
2013-03-19 05:32:00,8.0,1.0,-100.00,NW,305,17.0,22.0,73,0.00,,,0.00,,2013-03-19 10:32:00,
2013-03-19 05:42:00,8.0,1.0,-100.00,NW,305,18.0,22.0,72,0.00,,,0.00,,2013-03-19 10:42:00,
2013-03-19 05:52:00,8.0,1.0,-100.00,NW,305,17.0,21.0,72,0.00,,,0.00,,2013-03-19 10:52:00,
2013-03-19 06:02:00,8.0,1.0,-100.00,NW,310,14.0,22.0,72,0.00,,,0.00,,2013-03-19 11:02:00,
2013-03-19 06:22:00,8.0,1.0,-100.00,NW,320,16.0,20.0,72,0.00,,,0.00,,2013-03-19 11:22:00,
2013-03-19 06:32:00,8.0,1.0,-100.00,NW,320,14.0,21.0,72,0.00,,,0.00,,2013-03-19 11:32:00,
2013-03-19 06:42:00,8.0,1.0,-100.00,NW,320,14.0,18.0,73,0.00,,,0.00,,2013-03-19 11:42:00,
2013-03-19 06:52:00,8.0,1.0,-100.00,NW,325,16.0,21.0,72,0.00,,,0.00,,2013-03-19 11:52:00,
2013-03-19 07:02:00,8.0,1.0,-100.00,NW,320,17.0,21.0,72,0.00,,,0.00,,2013-03-19 12:02:00,
2013-03-19 07:12:00,8.0,1.0,-100.00,NW,320,17.0,21.0,72,0.00,,,0.00,,2013-03-19 12:12:00,
2013-03-19 07:22:00,8.0,1.0,-100.00,NW,320,16.0,23.0,71,0.00,,,0.00,,2013-03-19 12:22:00,
2013-03-19 07:32:00,8.0,1.0,-100.00,NW,315,17.0,22.0,71,0.00,,,0.00,,2013-03-19 12:32:00,
2013-03-19 07:42:00,8.0,1.0,-100.00,NW,310,19.0,23.0,70,0.00,,,0.00,,2013-03-19 12:42:00,
2013-03-19 07:52:00,9.0,1.0,-100.00,NW,305,17.0,23.0,70,0.00,,,0.00,,2013-03-19 12:52:00,
2013-03-19 08:02:00,9.0,1.0,-100.00,WNW,300,17.0,21.0,70,0.00,,,0.00,,2013-03-19 13:02:00,
2013-03-19 08:22:00,10.0,1.0,-100.00,NW,305,14.0,20.0,69,0.00,,,0.00,,2013-03-19 13:22:00,
2013-03-19 08:32:00,10.0,1.0,-100.00,WNW,300,17.0,19.0,68,0.00,,,0.00,,2013-03-19 13:32:00,
2013-03-19 08:42:00,11.0,1.0,-100.00,NW,310,17.0,22.0,67,0.00,,,0.00,,2013-03-19 13:42:00,
2013-03-19 08:52:00,11.0,1.0,-100.00,NW,310,17.0,22.0,66,0.00,,,0.00,,2013-03-19 13:52:00,
2013-03-19 09:02:00,12.0,3.0,-100.00,NW,310,14.0,19.0,67,0.00,,,0.00,,2013-03-19 14:02:00,
2013-03-19 09:12:00,12.0,3.0,-100.00,NW,320,16.0,23.0,65,0.00,,,0.00,,2013-03-19 14:12:00,
2013-03-19 09:22:00,12.0,1.0,-100.00,NW,320,16.0,20.0,64,0.00,,,0.00,,2013-03-19 14:22:00,
2013-03-19 09:32:00,12.0,1.0,-100.00,NNW,330,16.0,21.0,63,0.00,,,0.00,,2013-03-19 14:32:00,
2013-03-19 09:42:00,13.0,3.0,-100.00,NW,325,15.0,21.0,62,0.00,,,0.00,,2013-03-19 14:42:00,
2013-03-19 09:52:00,13.0,1.0,-100.00,NNW,340,17.0,25.0,60,0.00,,,0.00,,2013-03-19 14:52:00,
2013-03-19 10:02:00,13.0,1.0,-100.00,NNW,335,17.0,22.0,61,0.00,,,0.00,,2013-03-19 15:02:00,
2013-03-19 10:22:00,14.0,3.0,-100.00,NNW,330,12.0,21.0,60,0.00,,,0.00,,2013-03-19 15:22:00,
2013-03-19 10:32:00,13.0,1.0,-100.00,NNW,345,15.0,20.0,58,0.00,,,0.00,,2013-03-19 15:32:00,
2013-03-19 10:42:00,15.0,5.0,-100.00,NNW,330,14.0,21.0,61,0.00,,,0.00,,2013-03-19 15:42:00,
2013-03-19 10:52:00,15.0,3.0,-100.00,NNW,335,13.0,21.0,60,0.00,,,0.00,,2013-03-19 15:52:00,
2013-03-19 11:02:00,15.0,1.0,-100.00,NW,325,17.0,22.0,56,0.00,,,0.00,,2013-03-19 16:02:00,
2013-03-19 11:12:00,14.0,1.0,-100.00,NNW,335,17.0,22.0,55,0.00,,,0.00,,2013-03-19 16:12:00,
2013-03-19 11:22:00,15.0,1.0,-100.00,NNW,335,16.0,22.0,56,0.00,,,0.00,,2013-03-19 16:22:00,
2013-03-19 11:32:00,15.0,1.0,-100.00,NW,325,19.0,22.0,54,0.00,,,0.00,,2013-03-19 16:32:00,
2013-03-19 11:42:00,16.0,3.0,-100.00,NW,315,17.0,23.0,56,0.00,,,0.00,,2013-03-19 16:42:00,
2013-03-19 11:52:00,16.0,3.0,-100.00,NW,320,15.0,21.0,55,0.00,,,0.00,,2013-03-19 16:52:00,
2013-03-19 12:02:00,16.0,3.0,-100.00,NW,315,14.0,22.0,54,0.00,,,0.00,,2013-03-19 17:02:00,
2013-03-19 12:22:00,16.0,3.0,-100.00,NW,325,15.0,19.0,58,0.00,,,0.00,,2013-03-19 17:22:00,
2013-03-19 12:32:00,17.0,5.0,-100.00,NW,315,14.0,18.0,57,0.00,,,0.00,,2013-03-19 17:32:00,
2013-03-19 12:42:00,18.0,5.0,-100.00,NW,310,15.0,18.0,56,0.00,,,0.00,,2013-03-19 17:42:00,
2013-03-19 12:52:00,18.0,3.0,-100.00,NW,315,14.0,19.0,53,0.00,,,0.00,,2013-03-19 17:52:00,
2013-03-19 13:02:00,18.0,7.0,-100.00,WNW,300,16.0,20.0,58,0.00,,,0.00,,2013-03-19 18:02:00,
2013-03-19 13:12:00,18.0,5.0,-100.00,WNW,295,16.0,21.0,56,0.00,,,0.00,,2013-03-19 18:12:00,
2013-03-19 13:22:00,19.0,5.0,-100.00,WNW,300,19.0,24.0,55,0.00,,,0.00,,2013-03-19 18:22:00,
2013-03-19 13:32:00,20.0,7.0,-100.00,NW,320,17.0,22.0,58,0.00,,,0.00,,2013-03-19 18:32:00,
2013-03-19 13:42:00,20.0,9.0,-100.00,WNW,295,16.0,22.0,60,0.00,,,0.00,,2013-03-19 18:42:00,
2013-03-19 13:52:00,21.0,9.0,-100.00,NW,315,14.0,21.0,58,0.00,,,0.00,,2013-03-19 18:52:00,
2013-03-19 14:02:00,21.0,10.0,-100.00,NW,305,16.0,21.0,61,0.00,,,0.00,,2013-03-19 19:02:00,
2013-03-19 14:22:00,21.0,10.0,-100.00,NW,310,17.0,21.0,62,0.00,,,0.00,,2013-03-19 19:22:00,
2013-03-19 14:32:00,21.0,10.0,-100.00,NW,305,17.0,22.0,61,0.00,,,0.00,,2013-03-19 19:32:00,
2013-03-19 14:42:00,21.0,10.0,-100.00,NW,310,16.0,22.0,63,0.00,,,0.00,,2013-03-19 19:42:00,
2013-03-19 14:52:00,21.0,9.0,-100.00,NW,320,17.0,24.0,60,0.00,,,0.00,,2013-03-19 19:52:00,
2013-03-19 15:02:00,21.0,10.0,-100.00,NW,320,18.0,24.0,64,0.00,,,0.00,,2013-03-19 20:02:00,
2013-03-19 15:12:00,20.0,7.0,-100.00,NNW,330,21.0,26.0,56,0.00,,,0.00,,2013-03-19 20:12:00,
2013-03-19 15:22:00,21.0,10.0,-100.00,NW,320,19.0,25.0,61,0.00,,,0.00,,2013-03-19 20:22:00,
2013-03-19 15:32:00,20.0,7.0,-100.00,NW,320,23.0,32.0,56,0.00,,,0.00,,2013-03-19 20:32:00,
2013-03-19 15:42:00,20.0,9.0,-100.00,NW,315,21.0,27.0,59,0.00,,,0.00,,2013-03-19 20:42:00,
2013-03-19 15:52:00,19.0,5.0,-100.00,NW,320,21.0,29.0,55,0.00,,,0.00,,2013-03-19 20:52:00,
2013-03-19 16:02:00,18.0,5.0,-100.00,NW,325,22.0,29.0,57,0.00,,,0.00,,2013-03-19 21:02:00,
2013-03-19 16:22:00,18.0,7.0,-100.00,NW,310,21.0,29.0,60,0.00,,,0.00,,2013-03-19 21:22:00,
2013-03-19 16:32:00,18.0,7.0,-100.00,NW,310,21.0,31.0,60,0.00,,,0.00,,2013-03-19 21:32:00,
2013-03-19 16:42:00,17.0,7.0,-100.00,NW,320,21.0,30.0,61,0.00,,,0.00,,2013-03-19 21:42:00,
2013-03-19 16:52:00,18.0,9.0,-100.00,NW,305,21.0,26.0,65,0.00,,,0.00,,2013-03-19 21:52:00,
2013-03-19 17:02:00,18.0,9.0,-100.00,NW,315,22.0,28.0,64,0.00,,,0.00,,2013-03-19 22:02:00,
2013-03-19 17:12:00,18.0,7.0,-100.00,NW,320,19.0,29.0,63,0.00,,,0.00,,2013-03-19 22:12:00,
2013-03-19 17:22:00,17.0,9.0,-100.00,NW,310,22.0,28.0,66,0.00,,,0.00,,2013-03-19 22:22:00,
2013-03-19 17:32:00,17.0,7.0,-100.00,NW,320,26.0,30.0,66,0.00,,,0.00,,2013-03-19 22:32:00,
2013-03-19 17:42:00,17.0,7.0,-100.00,NW,310,25.0,30.0,66,0.00,,,0.00,,2013-03-19 22:42:00,
2013-03-19 17:52:00,16.0,7.0,-100.00,NW,320,26.0,32.0,65,0.00,,,0.00,,2013-03-19 22:52:00,
2013-03-19 18:02:00,16.0,5.0,-100.00,NW,320,26.0,32.0,62,0.00,,,0.00,,2013-03-19 23:02:00,
2013-03-19 18:22:00,15.0,5.0,-100.00,NNW,330,21.0,32.0,64,0.00,,,0.00,,2013-03-19 23:22:00,
2013-03-19 18:32:00,15.0,5.0,-100.00,NW,320,24.0,29.0,64,0.00,,,0.00,,2013-03-19 23:32:00,
2013-03-19 18:42:00,15.0,5.0,-100.00,NW,315,20.0,28.0,65,0.00,,,0.00,,2013-03-19 23:42:00,
2013-03-19 18:52:00,15.0,5.0,-100.00,NW,315,21.0,27.0,66,0.00,,,0.00,,2013-03-19 23:52:00,
2013-03-19 19:02:00,15.0,5.0,-100.00,NW,325,19.0,30.0,65,0.00,,,0.00,,2013-03-20 00:02:00,
2013-03-19 19:12:00,15.0,5.0,-100.00,NW,325,19.0,27.0,66,0.00,,,0.00,,2013-03-20 00:12:00,
2013-03-19 19:22:00,14.0,5.0,-100.00,NW,325,22.0,28.0,65,0.00,,,0.00,,2013-03-20 00:22:00,
2013-03-19 19:32:00,14.0,5.0,-100.00,NW,325,18.0,28.0,67,0.00,,,0.00,,2013-03-20 00:32:00,
2013-03-19 19:42:00,14.0,5.0,-100.00,NW,325,19.0,24.0,68,0.00,,,0.00,,2013-03-20 00:42:00,
2013-03-19 19:52:00,14.0,5.0,-100.00,NW,320,21.0,26.0,68,0.00,,,0.00,,2013-03-20 00:52:00,
2013-03-19 20:02:00,13.0,5.0,-100.00,NW,320,19.0,25.0,68,0.00,,,0.00,,2013-03-20 01:02:00,
2013-03-19 20:22:00,13.0,5.0,-100.00,NW,315,18.0,23.0,71,0.00,,,0.00,,2013-03-20 01:22:00,
2013-03-19 20:32:00,13.0,7.0,-100.00,NW,320,20.0,24.0,72,0.00,,,0.00,,2013-03-20 01:32:00,
2013-03-19 20:42:00,13.0,7.0,-100.00,NW,320,20.0,26.0,74,0.00,,,0.00,,2013-03-20 01:42:00,
2013-03-19 20:52:00,13.0,7.0,-100.00,NW,315,20.0,26.0,75,0.00,,,0.00,,2013-03-20 01:52:00,
2013-03-19 21:02:00,13.0,7.0,-100.00,NW,315,19.0,26.0,76,0.00,,,0.00,,2013-03-20 02:02:00,
2013-03-19 21:12:00,13.0,7.0,-100.00,NW,315,19.0,24.0,77,0.00,,,0.00,,2013-03-20 02:12:00,
2013-03-19 21:22:00,13.0,7.0,-100.00,NW,325,21.0,28.0,78,0.00,,,0.00,,2013-03-20 02:22:00,
2013-03-19 21:32:00,13.0,7.0,-100.00,NNW,330,22.0,28.0,78,0.00,,,0.00,,2013-03-20 02:32:00,
2013-03-19 21:42:00,13.0,7.0,-100.00,NW,320,21.0,35.0,76,0.00,,,0.00,,2013-03-20 02:42:00,
2013-03-19 21:52:00,13.0,5.0,-100.00,NNW,330,27.0,34.0,73,0.00,,,0.00,,2013-03-20 02:52:00,
2013-03-19 22:02:00,13.0,5.0,-100.00,NW,325,23.0,30.0,73,0.00,,,0.00,,2013-03-20 03:02:00,
2013-03-19 22:22:00,12.0,5.0,-100.00,NW,320,23.0,29.0,72,0.00,,,0.00,,2013-03-20 03:22:00,
2013-03-19 22:32:00,12.0,5.0,-100.00,NW,325,27.0,39.0,71,0.00,,,0.00,,2013-03-20 03:32:00,
2013-03-19 22:42:00,12.0,5.0,-100.00,NW,315,25.0,32.0,72,0.00,,,0.00,,2013-03-20 03:42:00,
2013-03-19 22:52:00,12.0,5.0,-100.00,NW,325,22.0,32.0,73,0.00,,,0.00,,2013-03-20 03:52:00,
2013-03-19 23:02:00,11.0,5.0,-100.00,NW,320,21.0,28.0,75,0.00,,,0.00,,2013-03-20 04:02:00,
2013-03-19 23:12:00,11.0,5.0,-100.00,NW,325,21.0,29.0,75,0.00,,,0.00,,2013-03-20 04:12:00,
2013-03-19 23:22:00,11.0,5.0,-100.00,NW,315,23.0,29.0,75,0.00,,,0.00,,2013-03-20 04:22:00,
2013-03-19 23:32:00,11.0,5.0,-100.00,NW,315,19.0,26.0,77,0.00,,,0.00,,2013-03-20 04:32:00,
2013-03-19 23:42:00,11.0,5.0,-100.00,NW,325,23.0,28.0,78,0.00,,,0.00,,2013-03-20 04:42:00,
2013-03-19 23:52:00,11.0,7.0,-100.00,NW,315,20.0,26.0,80,0.00,,,0.00,,2013-03-20 04:52:00,